Language: 


Des rapports , des résumés tant et plus, au choix de chacun....


Données statistiques de la station
Quotidien Rapport Janvier 17, 2017 Unités:  Anglais    Métrique   les deux
« Précédent Jour
Suivant Jour »
Quotidien Hebdomadaire Mensuel Annuel Actuel
  Haut: Bas: Moyen:
Température: 34 °F 27.9 °F 29.7 °F
Pt de rosée: 31.8 °F 26.4 °F 28.2 °F
Humidité: 98 % 0 % 94 %
Vitesse du vent: 6.7 mph 0 mph 4 mph
Rafales: 8.5 mph - -
Vent:- - ENE
Pression: 30.7 in 0 in -
Précipitation: 0 in    
Historical Graphs
 
 
Données statistiques pour Janvier 17, 2017
Heure Température Point de rosée Pression Vent Vitesse du vent Refales Humidité Pluie (taux horaire)
00:01 31.1 °F 30.6 °F 30.4 in Calm   3.6 mph 98 % 0 in
00:06 30.9 °F 30.4 °F 30.4 in ENE 3.4 mph 3.6 mph 98 % 0 in
00:11 30.7 °F 30.4 °F 30.4 in ENE 3.6 mph 3.6 mph 98 % 0 in
00:16 30.7 °F 30.4 °F 30.4 in ENE 2.5 mph 4 mph 98 % 0 in
00:21 30.6 °F 30 °F 30.4 in NE 3.4 mph 4.3 mph 98 % 0 in
00:26 30.6 °F 30 °F 30.4 in ENE 2.7 mph 4.3 mph 98 % 0 in
00:31 30.4 °F 29.8 °F 30.4 in ENE 2.5 mph 4 mph 98 % 0 in
00:36 30.2 °F 29.7 °F 30.4 in ENE 2.5 mph 4 mph 98 % 0 in
00:41 30.2 °F 29.7 °F 30.4 in ENE 4.3 mph 4.3 mph 98 % 0 in
00:46 30 °F 29.7 °F 30.4 in ENE 2.2 mph 4.3 mph 98 % 0 in
00:51 29.8 °F 29.5 °F 30.4 in Calm   4.3 mph 98 % 0 in
00:56 29.7 °F 29.1 °F 30.4 in Calm   3.1 mph 98 % 0 in
01:01 29.7 °F 29.1 °F 30.4 in ENE 2.9 mph 3.4 mph 98 % 0 in
01:06 29.7 °F 29.1 °F 30.4 in East 2.5 mph 3.4 mph 98 % 0 in
01:11 29.7 °F 29.1 °F 30.4 in East 2.7 mph 3.4 mph 98 % 0 in
01:16 29.5 °F 28.9 °F 30.4 in ENE 2.7 mph 4.3 mph 98 % 0 in
01:21 29.5 °F 28.9 °F 30.4 in East 3.1 mph 4.3 mph 98 % 0 in
01:26 29.5 °F 28.9 °F 30.4 in Calm   3.8 mph 98 % 0 in
01:31 29.5 °F 28.9 °F 30.4 in ENE 3.1 mph 3.8 mph 98 % 0 in
01:36 29.5 °F 28.9 °F 30.4 in ENE 2.9 mph 3.4 mph 98 % 0 in
01:41 29.5 °F 28.9 °F 30.4 in ENE 2.9 mph 3.6 mph 98 % 0 in
01:46 29.5 °F 28.9 °F 30.4 in East 2.5 mph 4 mph 98 % 0 in
01:51 29.5 °F 28.9 °F 30.4 in ENE 2.7 mph 4 mph 98 % 0 in
01:56 29.1 °F 28.8 °F 30.4 in ENE 2.7 mph 3.6 mph 98 % 0 in
02:02 32 °F 28.6 °F 0 in ENE 2.2 mph 2.9 mph 0 % 0 in
02:07 28.8 °F 28.2 °F 30.4 in NE 1.6 mph 3.1 mph 98 % 0 in
02:12 28.6 °F 28.2 °F 30.4 in NE 2.5 mph 3.1 mph 98 % 0 in
02:17 28.6 °F 28.2 °F 30.4 in NE 3.1 mph 3.8 mph 98 % 0 in
02:22 28.6 °F 28.2 °F 30.5 in ENE 3.1 mph 3.8 mph 98 % 0 in
02:27 28.6 °F 28.2 °F 30.5 in East 2.9 mph 4 mph 98 % 0 in
02:32 28.6 °F 28 °F 30.5 in East 2.5 mph 4 mph 98 % 0 in
02:37 28.6 °F 28 °F 30.5 in ENE 2.5 mph 3.1 mph 98 % 0 in
02:42 28.2 °F 27.9 °F 30.5 in ENE 2.9 mph 3.6 mph 98 % 0 in
02:47 28.2 °F 27.9 °F 30.5 in ENE 2.7 mph 3.6 mph 98 % 0 in
02:52 28.2 °F 27.9 °F 30.5 in NE 3.1 mph 3.6 mph 98 % 0 in
02:57 28.2 °F 27.9 °F 30.5 in ENE 3.4 mph 4 mph 98 % 0 in
03:02 28.2 °F 27.9 °F 30.5 in NE 3.4 mph 4 mph 98 % 0 in
03:07 28.2 °F 27.9 °F 30.5 in NE 3.1 mph 4.2 mph 98 % 0 in
03:12 28.2 °F 27.9 °F 30.5 in ENE 3.8 mph 4.5 mph 98 % 0 in
03:17 28.2 °F 27.9 °F 30.5 in ENE 3.6 mph 4.9 mph 98 % 0 in
03:22 28.2 °F 27.9 °F 30.5 in East 3.1 mph 4.9 mph 98 % 0 in
03:27 28 °F 27.7 °F 30.5 in NE 3.4 mph 4.5 mph 98 % 0 in
03:32 28 °F 27.7 °F 30.5 in ENE 2.5 mph 3.8 mph 98 % 0 in
03:37 28 °F 27.7 °F 30.5 in ENE 4 mph 4.3 mph 98 % 0 in
03:42 28.2 °F 27.9 °F 30.5 in NE 3.8 mph 5.6 mph 98 % 0 in
03:47 28.2 °F 27.9 °F 30.5 in NE 4.3 mph 6.3 mph 98 % 0 in
03:52 28.6 °F 28 °F 30.5 in ENE 3.8 mph 6.3 mph 98 % 0 in
03:57 28.6 °F 28.2 °F 30.5 in East 4.9 mph 6 mph 98 % 0 in
04:02 28.6 °F 28.2 °F 30.5 in East 6 mph 6.5 mph 98 % 0 in
04:07 28.6 °F 28.2 °F 30.5 in East 3.6 mph 6.5 mph 98 % 0 in
04:12 28.8 °F 28.2 °F 30.5 in ENE 3.8 mph 6.3 mph 98 % 0 in
04:17 28.8 °F 28.2 °F 30.5 in East 3.4 mph 6.5 mph 98 % 0 in
04:22 28.6 °F 28.2 °F 30.5 in East 4.9 mph 6.5 mph 98 % 0 in
04:27 28.6 °F 28.2 °F 30.5 in East 5.4 mph 8.5 mph 98 % 0 in
04:32 28.6 °F 28.2 °F 30.5 in ESE 4.3 mph 8.5 mph 98 % 0 in
04:37 28.6 °F 28.2 °F 30.5 in ESE 3.1 mph 7.8 mph 98 % 0 in
04:42 28.6 °F 28.2 °F 30.5 in East 5.8 mph 6.3 mph 98 % 0 in
04:47 28.6 °F 28.2 °F 30.5 in East 2.9 mph 7.4 mph 98 % 0 in
04:52 28.6 °F 28.2 °F 30.5 in NE 3.1 mph 7.4 mph 98 % 0 in
04:58 28.6 °F 28.2 °F 30.5 in ENE 6.3 mph 7.2 mph 98 % 0 in
05:03 28.6 °F 28.2 °F 30.5 in East 3.1 mph 7.2 mph 98 % 0 in
05:08 28.6 °F 28.2 °F 30.5 in ESE 3.8 mph 6 mph 98 % 0 in
05:13 28.6 °F 28.2 °F 30.5 in SE 5.6 mph 6 mph 98 % 0 in
05:18 28.6 °F 28.2 °F 30.5 in East 5.6 mph 5.8 mph 98 % 0 in
05:23 28.6 °F 28.2 °F 30.5 in East 6.3 mph 8.1 mph 98 % 0 in
05:28 28.6 °F 28 °F 30.5 in East 4.3 mph 8.1 mph 98 % 0 in
05:33 28.6 °F 28 °F 30.5 in ESE 6.7 mph 7.6 mph 98 % 0 in
05:38 28.6 °F 28 °F 30.5 in ESE 3.6 mph 7.6 mph 98 % 0 in
05:43 28.6 °F 28 °F 30.5 in ENE 3.1 mph 7.2 mph 98 % 0 in
05:48 28.2 °F 27.9 °F 30.5 in ENE 4.9 mph 6.5 mph 98 % 0 in
05:53 28.6 °F 28 °F 30.5 in NE 4.3 mph 6.5 mph 98 % 0 in
05:58 28.2 °F 27.9 °F 30.5 in East 6 mph 6.5 mph 98 % 0 in
06:03 28.2 °F 27.9 °F 30.5 in ESE 4.7 mph 6.5 mph 98 % 0 in
06:08 28.2 °F 27.9 °F 30.5 in East 2.9 mph 6.5 mph 98 % 0 in
06:13 28.2 °F 27.9 °F 30.5 in ENE 4.3 mph 6.7 mph 98 % 0 in
06:18 28.6 °F 28 °F 30.5 in East 5.6 mph 7.6 mph 98 % 0 in
06:23 28.2 °F 27.9 °F 30.5 in ESE 3.6 mph 7.8 mph 98 % 0 in
06:28 28 °F 27.7 °F 30.5 in East 4 mph 7.8 mph 98 % 0 in
06:33 27.9 °F 27.5 °F 30.5 in East 4.3 mph 6.7 mph 98 % 0 in
06:38 27.9 °F 27.5 °F 30.5 in East 3.6 mph 5.8 mph 98 % 0 in
06:43 27.9 °F 27.5 °F 30.5 in East 4.9 mph 6.7 mph 98 % 0 in
06:48 27.9 °F 27.5 °F 30.5 in East 3.1 mph 6.7 mph 98 % 0 in
06:53 27.9 °F 27.5 °F 30.5 in SE 2.5 mph 6 mph 98 % 0 in
06:58 27.9 °F 27.5 °F 30.5 in SE 1.6 mph 6 mph 98 % 0 in
07:03 27.9 °F 27.5 °F 30.5 in East 3.1 mph 4.9 mph 98 % 0 in
07:08 27.9 °F 27.5 °F 30.5 in SE 3.1 mph 3.6 mph 98 % 0 in
07:13 27.9 °F 27.5 °F 30.5 in ESE 6.3 mph 7.4 mph 98 % 0 in
07:18 27.9 °F 27.5 °F 30.5 in ENE 3.6 mph 7.4 mph 98 % 0 in
07:23 27.9 °F 27.5 °F 30.5 in ENE 4.9 mph 6.5 mph 98 % 0 in
07:28 27.9 °F 27.5 °F 30.5 in SE 3.4 mph 6.5 mph 98 % 0 in
07:33 27.9 °F 27.5 °F 30.5 in ESE 4.5 mph 6.3 mph 98 % 0 in
07:38 27.9 °F 27.5 °F 30.5 in SE 5.6 mph 6.3 mph 98 % 0 in
07:43 27.9 °F 27.5 °F 30.5 in SE 1.3 mph 6 mph 98 % 0 in
07:48 27.9 °F 27.5 °F 30.5 in SSE 4 mph 5.6 mph 98 % 0 in
07:53 27.9 °F 27.5 °F 30.5 in ESE 3.1 mph 4.7 mph 98 % 0 in
07:58 27.9 °F 27.5 °F 30.5 in ESE 5.4 mph 6 mph 98 % 0 in
08:03 27.9 °F 27.5 °F 30.5 in East 2.2 mph 6 mph 98 % 0 in
08:08 27.9 °F 27.5 °F 30.6 in ESE 5.8 mph 6.5 mph 98 % 0 in
08:13 27.9 °F 27.5 °F 30.6 in SE 3.8 mph 6.5 mph 98 % 0 in
08:18 27.9 °F 27.5 °F 30.6 in ESE 2 mph 4.9 mph 98 % 0 in
08:23 27.9 °F 27.5 °F 30.6 in East 1.3 mph 6.3 mph 98 % 0 in
08:28 27.9 °F 27.5 °F 30.6 in ESE 1.1 mph 6.3 mph 98 % 0 in
08:33 27.9 °F 27.5 °F 30.6 in East 1.6 mph 2.7 mph 98 % 0 in
08:38 27.9 °F 27.5 °F 30.6 in East 2.9 mph 4.7 mph 98 % 0 in
08:43 27.9 °F 27.5 °F 30.6 in East 2.9 mph 4.7 mph 98 % 0 in
08:48 27.9 °F 27.5 °F 30.6 in ENE 3.6 mph 3.6 mph 98 % 0 in
08:53 28 °F 27.7 °F 30.6 in ESE 3.6 mph 4 mph 98 % 0 in
08:58 28 °F 27.7 °F 30.6 in ENE 3.4 mph 4 mph 98 % 0 in
09:03 28 °F 27.7 °F 30.6 in NE 3.4 mph 4.3 mph 98 % 0 in
09:08 28.2 °F 27.9 °F 30.6 in NE 5.8 mph 6 mph 98 % 0 in
09:13 28.2 °F 27.9 °F 30.6 in NE 3.6 mph 6.5 mph 98 % 0 in
09:18 28.2 °F 27.9 °F 30.6 in East 3.4 mph 7.8 mph 98 % 0 in
09:23 28 °F 27.7 °F 30.6 in East 4.9 mph 7.8 mph 98 % 0 in
09:28 28 °F 27.7 °F 30.6 in ENE 3.6 mph 6.3 mph 98 % 0 in
09:33 27.9 °F 27.5 °F 30.6 in East 4.3 mph 6.5 mph 98 % 0 in
09:38 27.9 °F 27.5 °F 30.6 in ESE 3.4 mph 6.5 mph 98 % 0 in
09:43 28 °F 27.7 °F 30.6 in ENE 6 mph 7.2 mph 98 % 0 in
09:48 28 °F 27.7 °F 30.6 in NE 5.6 mph 7.2 mph 98 % 0 in
09:53 28 °F 27.7 °F 30.6 in ESE 4.3 mph 8.1 mph 98 % 0 in
09:58 28 °F 27.7 °F 30.6 in East 4.3 mph 8.1 mph 98 % 0 in
10:03 28.2 °F 27.9 °F 30.6 in East 4.3 mph 6.5 mph 98 % 0 in
10:08 28.6 °F 28.2 °F 30.6 in ESE 4.9 mph 6.5 mph 98 % 0 in
10:13 28.6 °F 28.2 °F 30.6 in East 3.8 mph 6.3 mph 98 % 0 in
10:18 28.6 °F 28.2 °F 30.6 in NE 3.4 mph 6 mph 98 % 0 in
10:23 28.6 °F 28 °F 30.6 in East 3.6 mph 4.9 mph 98 % 0 in
10:28 28.6 °F 28 °F 30.6 in ENE 3.1 mph 5.8 mph 98 % 0 in
10:33 28.6 °F 27.9 °F 30.6 in ENE 4 mph 5.8 mph 97 % 0 in
10:38 28.9 °F 28.2 °F 30.6 in East 5.6 mph 6.3 mph 97 % 0 in
10:43 29.1 °F 28.4 °F 30.6 in East 3.6 mph 6.3 mph 97 % 0 in
10:48 29.5 °F 28.6 °F 30.6 in East 6.3 mph 6.3 mph 97 % 0 in
10:53 29.5 °F 28.8 °F 30.6 in ENE 4.3 mph 6.3 mph 97 % 0 in
10:58 29.5 °F 28.8 °F 30.6 in ESE 5.4 mph 7.2 mph 97 % 0 in
11:03 29.5 °F 28.8 °F 30.6 in East 4.3 mph 7.4 mph 97 % 0 in
11:08 29.7 °F 28.9 °F 30.6 in NE 4.7 mph 7.4 mph 97 % 0 in
11:13 29.8 °F 29.1 °F 30.6 in East 2 mph 6.5 mph 97 % 0 in
11:18 30 °F 29.3 °F 30.6 in ENE 3.4 mph 6.5 mph 97 % 0 in
11:23 30.2 °F 29.5 °F 30.6 in East 4.9 mph 4.9 mph 97 % 0 in
11:28 30.2 °F 29.5 °F 30.6 in ESE 3.8 mph 6.5 mph 97 % 0 in
11:33 30 °F 29.3 °F 30.6 in ENE 4 mph 6.5 mph 97 % 0 in
11:38 29.8 °F 28.9 °F 30.6 in ENE 4.3 mph 5.8 mph 96 % 0 in
11:43 30.2 °F 29.1 °F 30.6 in ENE 4.7 mph 6.9 mph 96 % 0 in
11:48 30.4 °F 29.5 °F 30.6 in East 4.7 mph 6.9 mph 96 % 0 in
11:53 30.6 °F 29.7 °F 30.6 in ENE 4.3 mph 5.8 mph 96 % 0 in
11:58 30.7 °F 29.8 °F 30.6 in NE 3.6 mph 5.8 mph 96 % 0 in
12:04 30.7 °F 29.8 °F 30.6 in East 3.8 mph 5.6 mph 96 % 0 in
12:09 31.5 °F 30.6 °F 30.6 in ESE 4.3 mph 6 mph 96 % 0 in
12:14 31.5 °F 30.6 °F 30.6 in East 3.4 mph 6.3 mph 96 % 0 in
12:19 31.8 °F 30.6 °F 30.6 in East 3.6 mph 7.2 mph 95 % 0 in
12:24 32.2 °F 30.9 °F 30.6 in ESE 3.6 mph 7.2 mph 95 % 0 in
12:29 32.2 °F 30.6 °F 30.6 in ESE 3.8 mph 6 mph 94 % 0 in
12:34 32 °F 30.2 °F 30.6 in ESE 4 mph 6.5 mph 93 % 0 in
12:39 32.4 °F 30.6 °F 30.6 in SE 4.9 mph 6.5 mph 93 % 0 in
12:44 32.7 °F 31.3 °F 30.6 in ESE 3.4 mph 5.4 mph 94 % 0 in
12:49 32.5 °F 30.7 °F 30.6 in East 3.8 mph 4.9 mph 93 % 0 in
12:54 33.4 °F 31.8 °F 30.6 in ESE 3.6 mph 4.9 mph 94 % 0 in
12:59 33.6 °F 31.8 °F 30.6 in East 5.4 mph 6 mph 93 % 0 in
13:04 33.3 °F 30.9 °F 30.6 in ESE 4.7 mph 6.7 mph 91 % 0 in
13:09 33.1 °F 30.4 °F 30.6 in ESE 4.3 mph 6.7 mph 90 % 0 in
13:14 33.3 °F 30.6 °F 30.6 in SE 4.7 mph 6.3 mph 90 % 0 in
13:19 33.6 °F 30.9 °F 30.6 in ENE 3.8 mph 6 mph 90 % 0 in
13:24 33.6 °F 30.9 °F 30.6 in ESE 5.4 mph 5.6 mph 90 % 0 in
13:29 33.6 °F 30.7 °F 30.6 in ESE 4.3 mph 6 mph 89 % 0 in
13:34 33.6 °F 30.7 °F 30.6 in ESE 3.8 mph 6 mph 89 % 0 in
13:39 33.6 °F 30.7 °F 30.6 in East 3.1 mph 5.6 mph 89 % 0 in
13:44 33.8 °F 30.6 °F 30.6 in ENE 4.9 mph 4.9 mph 88 % 0 in
13:49 33.6 °F 30.7 °F 30.6 in NE 4.7 mph 6.3 mph 89 % 0 in
13:54 33.6 °F 30.7 °F 30.6 in East 3.1 mph 6.3 mph 89 % 0 in
13:59 33.4 °F 30.6 °F 30.6 in NE 4.3 mph 6 mph 89 % 0 in
14:04 33.3 °F 30 °F 30.6 in ENE 3.8 mph 7.2 mph 88 % 0 in
14:09 33.1 °F 29.8 °F 30.6 in ENE 3.8 mph 7.2 mph 88 % 0 in
14:14 33.4 °F 30.2 °F 30.6 in ESE 2.9 mph 4.5 mph 88 % 0 in
14:19 33.4 °F 30.2 °F 30.6 in ENE 4.3 mph 5.8 mph 88 % 0 in
14:24 33.6 °F 30.4 °F 30.6 in East 1.6 mph 5.8 mph 88 % 0 in
14:29 33.8 °F 30.6 °F 30.6 in NE 5.4 mph 6 mph 88 % 0 in
14:34 33.8 °F 30.6 °F 30.6 in ENE 5.6 mph 6 mph 88 % 0 in
14:39 33.8 °F 30.4 °F 30.6 in NE 3.4 mph 6.3 mph 87 % 0 in
14:44 33.8 °F 30.4 °F 30.6 in NE 5.4 mph 6.5 mph 87 % 0 in
14:49 34 °F 30.6 °F 30.6 in NE 4.3 mph 6.5 mph 87 % 0 in
14:54 34 °F 30.2 °F 30.6 in ENE 3.1 mph 5.8 mph 86 % 0 in
14:59 34 °F 30.2 °F 30.6 in NE 5.4 mph 5.8 mph 86 % 0 in
15:04 33.8 °F 30 °F 30.6 in ENE 4.3 mph 5.8 mph 86 % 0 in
15:09 33.8 °F 30 °F 30.6 in East 4.7 mph 5.8 mph 86 % 0 in
15:14 33.6 °F 29.8 °F 30.6 in NNE 5.6 mph 6.3 mph 86 % 0 in
15:19 33.6 °F 29.8 °F 30.6 in NE 3.8 mph 6.3 mph 86 % 0 in
15:25 33.6 °F 29.8 °F 30.6 in NE 4.9 mph 6.3 mph 86 % 0 in
15:30 33.6 °F 29.8 °F 30.6 in East 3.6 mph 5.8 mph 86 % 0 in
15:34 33.6 °F 29.8 °F 30.6 in NE 5.6 mph 6.3 mph 86 % 0 in
15:40 33.6 °F 29.8 °F 30.6 in NE 2.2 mph 7.4 mph 86 % 0 in
15:44 33.6 °F 29.8 °F 30.6 in East 4.3 mph 7.4 mph 86 % 0 in
15:50 33.6 °F 29.8 °F 30.6 in NE 3.8 mph 6.3 mph 86 % 0 in
15:55 33.4 °F 29.5 °F 30.6 in ENE 2.7 mph 6.5 mph 85 % 0 in
16:00 33.4 °F 29.5 °F 30.6 in East 4.9 mph 6.5 mph 85 % 0 in
16:05 33.4 °F 29.5 °F 30.6 in NE 6 mph 6 mph 85 % 0 in
16:10 33.3 °F 29.1 °F 30.6 in ENE 3.6 mph 6 mph 85 % 0 in
16:14 33.3 °F 29.1 °F 30.6 in NE 3.4 mph 6 mph 85 % 0 in
16:19 33.1 °F 28.9 °F 30.6 in ENE 4 mph 5.8 mph 85 % 0 in
16:24 32.7 °F 28.8 °F 30.6 in NE 3.1 mph 5.8 mph 85 % 0 in
16:30 32.5 °F 28.2 °F 30.6 in NE 3.8 mph 5.6 mph 84 % 0 in
16:34 32.4 °F 28.2 °F 30.6 in NE 3.6 mph 4.3 mph 85 % 0 in
16:40 32.2 °F 28.2 °F 30.6 in NE 3.4 mph 4.3 mph 85 % 0 in
16:44 32 °F 28 °F 30.6 in NE 2.7 mph 4.3 mph 85 % 0 in
16:49 31.6 °F 27.7 °F 30.6 in NE 4 mph 5.6 mph 85 % 0 in
16:54 31.5 °F 27.9 °F 30.6 in NNE 2.9 mph 5.6 mph 86 % 0 in
17:00 31.3 °F 27.7 °F 30.6 in NE 3.4 mph 5.4 mph 86 % 0 in
17:05 31.1 °F 27.7 °F 30.6 in North 3.8 mph 6.3 mph 87 % 0 in
17:10 30.9 °F 27.5 °F 30.6 in NNE 4 mph 6.3 mph 87 % 0 in
17:15 30.7 °F 27.3 °F 30.6 in NNE 3.6 mph 5.4 mph 87 % 0 in
17:20 30.6 °F 27.1 °F 30.6 in NE 4.3 mph 5.4 mph 87 % 0 in
17:25 30.6 °F 27.5 °F 30.6 in NE 4 mph 5.8 mph 88 % 0 in
17:30 30.4 °F 27.3 °F 30.6 in NE 4 mph 5.8 mph 88 % 0 in
17:35 30.2 °F 27.3 °F 30.6 in NNE 4 mph 4.9 mph 89 % 0 in
17:40 30.2 °F 27.3 °F 30.6 in NE 2.9 mph 6 mph 89 % 0 in
17:45 30.2 °F 27.3 °F 30.6 in NNE 4 mph 6 mph 89 % 0 in
17:50 30.2 °F 27.3 °F 30.6 in NNE 3.8 mph 5.6 mph 89 % 0 in
17:55 30 °F 27.1 °F 30.6 in NNE 3.8 mph 5.6 mph 89 % 0 in
18:00 29.8 °F 27.3 °F 30.6 in NNE 3.6 mph 4.9 mph 90 % 0 in
18:05 29.8 °F 27.3 °F 30.6 in ENE 4.7 mph 5.4 mph 90 % 0 in
18:10 29.7 °F 27.1 °F 30.6 in NE 4 mph 5.4 mph 90 % 0 in
18:15 29.5 °F 27 °F 30.6 in NE 4.9 mph 5.4 mph 90 % 0 in
18:20 29.5 °F 27 °F 30.6 in NNE 4 mph 5.6 mph 90 % 0 in
18:25 29.5 °F 27 °F 30.6 in NE 4.5 mph 5.6 mph 90 % 0 in
18:30 29.5 °F 27.1 °F 30.6 in NNE 2.7 mph 5.4 mph 91 % 0 in
18:35 29.5 °F 27.1 °F 30.6 in NNE 3.8 mph 7.4 mph 91 % 0 in
18:40 29.5 °F 27.1 °F 30.6 in NE 3.4 mph 7.4 mph 91 % 0 in
18:45 29.5 °F 27.1 °F 30.6 in NE 4.9 mph 6 mph 91 % 0 in
18:50 29.5 °F 27.1 °F 30.6 in NE 4.9 mph 6 mph 91 % 0 in
18:55 29.5 °F 27.5 °F 30.6 in ENE 4 mph 6 mph 92 % 0 in
19:00 29.5 °F 27.5 °F 30.6 in NE 3.6 mph 5.8 mph 92 % 0 in
19:05 29.5 °F 27.3 °F 30.6 in NE 4.9 mph 5.8 mph 92 % 0 in
19:10 29.5 °F 27.3 °F 30.7 in NE 4 mph 5.8 mph 92 % 0 in
19:15 29.1 °F 27.1 °F 30.7 in NNE 5.6 mph 5.8 mph 92 % 0 in
19:20 28.9 °F 27 °F 30.7 in NE 4.3 mph 5.8 mph 92 % 0 in
19:25 28.8 °F 26.8 °F 30.6 in NE 4.3 mph 6 mph 92 % 0 in
19:30 28.8 °F 26.8 °F 30.6 in ENE 4.3 mph 6 mph 92 % 0 in
19:35 28.8 °F 26.8 °F 30.6 in ENE 3.6 mph 4.7 mph 92 % 0 in
19:40 28.8 °F 26.8 °F 30.6 in ENE 4.3 mph 4.7 mph 92 % 0 in
19:45 28.8 °F 26.8 °F 30.6 in ENE 2.9 mph 4.3 mph 92 % 0 in
19:50 28.6 °F 26.6 °F 30.6 in NE 3.4 mph 4.3 mph 92 % 0 in
19:55 28.6 °F 26.6 °F 30.6 in ENE 3.8 mph 4.3 mph 92 % 0 in
20:00 28.6 °F 26.6 °F 30.6 in NE 3.1 mph 4 mph 92 % 0 in
20:05 28.6 °F 26.6 °F 30.6 in NE 3.8 mph 4 mph 92 % 0 in
20:10 28.6 °F 26.8 °F 30.6 in NE 4 mph 4 mph 93 % 0 in
20:15 28.6 °F 26.8 °F 30.6 in NE 3.6 mph 4.7 mph 93 % 0 in
20:20 28.6 °F 26.8 °F 30.6 in NE 3.8 mph 4.7 mph 93 % 0 in
20:25 28.2 °F 26.4 °F 30.6 in NE 2.9 mph 4.7 mph 93 % 0 in
20:30 28 °F 26.4 °F 30.6 in NE 3.6 mph 4.3 mph 93 % 0 in
20:35 28.2 °F 26.4 °F 30.6 in NE 4 mph 4 mph 93 % 0 in
20:40 28.2 °F 26.4 °F 30.6 in NNE 3.8 mph 4.9 mph 93 % 0 in
20:45 28.2 °F 26.8 °F 30.6 in NE 4.3 mph 5.4 mph 94 % 0 in
20:50 28.2 °F 26.8 °F 30.6 in NE 4.7 mph 5.8 mph 94 % 0 in
20:55 28 °F 26.6 °F 30.6 in NE 3.8 mph 5.8 mph 94 % 0 in
21:00 28 °F 26.6 °F 30.6 in ENE 3.6 mph 4.7 mph 94 % 0 in
21:05 28 °F 26.6 °F 30.6 in NE 4.9 mph 4.9 mph 94 % 0 in
21:10 28.2 °F 26.8 °F 30.6 in ENE 4.3 mph 5.6 mph 94 % 0 in
21:15 28.2 °F 26.8 °F 30.6 in NE 4.9 mph 5.8 mph 94 % 0 in
21:20 28.2 °F 26.8 °F 30.6 in NNE 3.8 mph 5.8 mph 94 % 0 in
21:25 28 °F 26.6 °F 30.6 in NNE 4 mph 5.8 mph 94 % 0 in
21:30 28 °F 26.6 °F 30.6 in NE 5.4 mph 5.8 mph 94 % 0 in
21:35 28 °F 26.6 °F 30.6 in North 4 mph 5.8 mph 94 % 0 in
21:40 27.9 °F 26.4 °F 30.6 in NNE 5.6 mph 6 mph 94 % 0 in
21:45 27.9 °F 26.4 °F 30.6 in NNE 5.6 mph 6 mph 94 % 0 in
21:50 27.9 °F 26.4 °F 30.6 in NNE 4.9 mph 6.5 mph 94 % 0 in
21:55 27.9 °F 26.4 °F 30.6 in NE 5.8 mph 6.5 mph 94 % 0 in
22:00 27.9 °F 26.4 °F 30.6 in NE 4.9 mph 6.3 mph 94 % 0 in
22:05 27.9 °F 26.4 °F 30.6 in NE 3.6 mph 6.5 mph 94 % 0 in
22:10 28 °F 27 °F 30.6 in East 4.5 mph 7.6 mph 95 % 0 in
22:15 28 °F 27 °F 30.6 in ENE 5.6 mph 7.6 mph 95 % 0 in
22:20 27.9 °F 26.8 °F 30.6 in NE 4.9 mph 6 mph 95 % 0 in
22:25 27.9 °F 26.8 °F 30.6 in ENE 6 mph 6.5 mph 95 % 0 in
22:30 27.9 °F 26.8 °F 30.6 in NE 5.8 mph 6.5 mph 95 % 0 in
22:35 27.9 °F 26.8 °F 30.6 in NE 6.5 mph 6.5 mph 95 % 0 in
22:40 27.9 °F 26.8 °F 30.6 in NNE 5.6 mph 7.8 mph 95 % 0 in
22:45 27.9 °F 26.8 °F 30.6 in NNE 5.8 mph 7.8 mph 95 % 0 in
22:50 27.9 °F 26.8 °F 30.6 in NE 5.4 mph 7.4 mph 95 % 0 in
22:55 27.9 °F 26.4 °F 30.6 in NNE 6.3 mph 7.4 mph 95 % 0 in
23:00 27.9 °F 26.4 °F 30.6 in NE 5.4 mph 7.2 mph 95 % 0 in
23:05 27.9 °F 26.4 °F 30.6 in NE 6 mph 7.2 mph 95 % 0 in
23:10 27.9 °F 26.8 °F 30.6 in ENE 5.6 mph 6.5 mph 95 % 0 in
23:15 27.9 °F 26.8 °F 30.6 in ENE 5.8 mph 7.6 mph 95 % 0 in
23:20 27.9 °F 26.8 °F 30.6 in NE 4.3 mph 7.6 mph 95 % 0 in
23:25 27.9 °F 26.8 °F 30.6 in NE 4.9 mph 6.5 mph 95 % 0 in
23:30 27.9 °F 26.4 °F 30.6 in NE 6.3 mph 7.6 mph 95 % 0 in
23:35 27.9 °F 26.4 °F 30.6 in ENE 4.9 mph 7.6 mph 95 % 0 in
23:40 27.9 °F 26.4 °F 30.6 in ENE 5.4 mph 6.5 mph 95 % 0 in
23:45 27.9 °F 26.4 °F 30.6 in ENE 4.3 mph 6.5 mph 95 % 0 in
23:50 27.9 °F 26.4 °F 30.6 in ENE 4 mph 5.8 mph 95 % 0 in
23:55 27.9 °F 26.4 °F 30.6 in ENE 4.3 mph 6 mph 95 % 0 in
Le Gheer Warneton
Courtoisie de Weather Underground - 2.25 mb

Mise a jour : 17/12/2017 22:20:15
Généré par Cumulus 1.9.4 (1099)